Voltar ao catálogo

STARLINK-34194

AtivoComunicaçõesVLEO
NORAD 64179·PAYLOAD·🇺🇸 United States

Lançado May 28, 2025 de Cape Canaveral Space Force Station

Loading…

Próximas Passagens (próximas 24 horas)

TLE

AtualizadoSource: CelesTrak SupGP

Época: Sep 14, 2026, 22:30 UTC

1 64179C 25113K   26257.93798611  .00051980  00000+0  15361-2 0  2572
2 64179  53.1587 287.6286 0001249  90.7771 240.9168 15.34357179    10

Acompanhe STARLINK-34194 em tempo real com AllMySat

Download on the App Store